Regional Weather Roundup
Issued by NWS Goodland, KS

Home | Current Version | Previous Version | Text Only | Print | Product List | Glossary On
Versions: 1 2 3 4 5 6 7 8 9 10 11 12 13 14 15 16 17 18 19 20 21 22 23 24 25 26 27 28 29 30 31 32 33 34 35 36 37 38 39 40 41 42 43 44 45 46 47 48 49 50
000
ASUS43 KGLD 051459
RWRGLD

GOODLAND FORECAST AREA HOURLY WEATHER ROUNDUP
NATIONAL WEATHER SERVICE GOODLAND KS
800 AM MST MON DEC 05 2016

...OFFICIAL OBSERVATIONS...

CITY           SKY/WX    TMP DP  RH WIND       PRES   REMARKS
GOODLAND KS    CLOUDY    36  17  46 W8        29.56F
HILL CITY KS   SUNNY     39  27  62 SW12      29.62F
IMPERIAL NEB   CLOUDY    33  18  53 W3        29.58R
MCCOOK NEB     CLOUDY    29  22  75 CALM      29.58F
AKRON CO       CLOUDY    39  17  41 SW8       29.60R
BURLINGTON CO  CLOUDY    33  17  51 SW7       29.58F
LIMON CO       CLOUDY    27  17  66 N7        29.59S
$$

...UNOFFICIAL OBSERVATIONS...

CITY           SKY/WX    TMP DP  RH WIND       PRES   REMARKS
COLBY KS       SUNNY     28  21  74 W8        29.58S
LENORA KS        N/A     36  32  85 MISG        N/A
NORTON KS      SUNNY     36  23  60 S6        29.60R
SHARON SPRINGS   N/A     33  20  59 W7          N/A
TRENTON NEB      N/A     30  32 100 CALM        N/A
KIT CARSON CO    N/A     23  15  70 CALM        N/A
YUMA CO        CLOUDY    34  18  51 W5        29.59R
$$




USA.gov is the U.S. government's official web portal to all federal, state and local government web resources and services.